Find Starlink 31171

NORAD ID: 58834 Int'l Des: 2024-017 Owner: SPXS Country: US Constellation: starlink operational
LEOCIRCULAR

現在のビュー

3D地球を読み込み中...

About Starlink 31171

Starlink 31171 (NORAD 58834) is a starlink constellation satellite (v2 mini) launched Jan 24, 2024 by SPXS of US. It operates in LEO, CIRCULAR orbit with a mass of 730.00 kg.

Starlink 31171について

説明を読み込み中...

次回通過

Passes for default location (London). Set your location on the main map for personalized predictions.

高度履歴

Loading altitude history...

軌道要素

1 58834U 24017J 26193.74590523 .00021674 00000-0 65049-3 0 9995
2 58834 53.1617 319.5441 0001044 91.4661 268.6461 15.34412821139531
Epoch: Jul 12, 2026 • Age: 6 hours

現在のステータス

高度 463.9 km
遠地点 / 近地点 N/A
速度 7.64 km/s
衛星直下点 29.61°N, 47.65°E
打ち上げ日 Jan 24, 2024
運用期間 2.4 years
タイプ internet

技術仕様

分類 Payload
質量 730.00 kg
乾燥質量 700.00 kg
総質量 730.00 kg
長さ 0.30 m
直径 4.10 m
スパン 29.00 m
形状 Box + pan
製造者 SPXS
バスタイプ Starlink V2M
フェーズステータス In Orbit
所有者/国 SPXS/US

Most Searched